[[{"header":{"parameterUnit":"m.s-1","parameterCategory":1,"la1":30.2991,"la2":30.254,"lo1":-89.0895,"lo2":-89.0444,"dy":0.0017,"dx":0.0017,"nx":28,"ny":28,"refTime":"2026-02-04T09:00:00:Z","depth":0,"parameterNumber":2,"parameterNumberName":"U-component_of_WINDS"},"data":[0,0,0,0,0,0,0,0,0,0,0,0,0,0,0,0,0,0,0,0,0,0,0,0,0,0,0,0,0,0,0,0,0,0,0,0,0,0,0,0,0,0,0,0,0,0,0,0,0,0,0,0,0,0,0,0,0,0,3.0735,3.0735,0,3.0751,3.0751,3.0751,3.0703,3.0702,3.07,3.0699,3.0714,3.0716,3.0717,0,0,0,0,0,0,0,0,0,0,0,0,0,3.0663,3.0665,3.0735,3.0735,3.0736,3.0751,3.0751,3.0752,3.0704,3.0702,3.07,3.0698,3.0713,3.0715,3.0718,0,0,0,0,0,0,0,0,0,0,0,0,0,3.0688,3.0666,3.0735,3.0714,3.0712,3.0751,3.0751,3.0752,3.0704,3.0702,3.07,3.0698,3.0713,3.0715,3.0718,3.0778,0,0,3.0726,3.0727,0,0,0,0,0,0,0,0,3.0687,3.0691,3.0717,3.0715,3.0713,3.0723,3.0731,3.076,3.0705,3.0707,3.0699,3.0696,3.0719,3.0721,3.0728,3.0779,3.0779,3.0726,3.0728,3.0729,3.073,0,0,0,0,0,0,0,3.0685,3.069,3.0741,3.0717,3.0715,3.0703,3.0704,3.0737,3.0725,3.0707,3.0703,3.0706,3.0717,3.0726,3.0728,3.078,3.0726,3.0728,3.073,3.0731,3.0882,3.0884,0,0,0,0,0,0,3.0687,3.0689,3.0741,3.0742,3.0695,3.0706,3.0708,3.0722,3.0724,3.0723,3.0708,3.0703,3.0723,3.0725,3.0729,3.08,3.0729,3.0731,3.0733,3.0879,3.0882,3.0885,0,0,0,0,0,0,3.0685,3.0692,3.074,3.0715,3.072,3.071,3.0727,3.0724,3.0732,3.0725,3.0723,3.0719,3.0721,3.0725,3.0767,3.08,3.0732,3.0735,3.0876,3.088,3.0884,3.0943,0,0,0,0,0,0,3.0683,3.0691,3.0714,3.0716,3.0721,3.0778,3.0729,3.0725,3.0737,3.0732,3.0735,3.0733,3.0719,3.0763,3.0769,3.0802,3.0737,3.0873,3.0878,3.0882,3.0938,3.0948,3.0957,0,0,0,0,0,3.0681,3.073,3.0716,3.0722,3.075,3.078,3.0783,3.0767,3.074,3.0763,3.0759,3.0733,3.0796,3.0768,3.0774,3.0809,3.0871,3.0877,3.0882,3.0934,3.0946,3.0957,0,0,0,0,0,0,3.0731,3.0729,3.0714,3.0764,3.0773,3.0772,3.08,3.078,3.0796,3.0791,3.0769,3.077,3.0816,3.0816,3.0785,3.0868,3.0829,3.0836,3.0866,3.0878,3.0887,3.0885,3.0739,0,0,0,0,0,3.0749,3.0774,3.077,3.0815,3.0821,3.081,3.0822,3.0809,3.0817,3.082,3.0819,3.0827,3.0849,3.0863,3.0882,3.0938,3.0939,3.0965,3.0975,3.0983,3.0989,3.1019,3.1031,3.0903,3.0903,3.0903,0,0,3.0784,3.0786,3.0803,3.0826,3.0831,3.0857,3.0813,3.0843,3.0862,3.0824,3.0864,3.0864,3.0872,3.0921,3.0942,3.0923,3.1025,3.099,3.0996,3.0998,3.1026,3.1038,3.1049,3.0906,3.0906,3.0905,0,0,3.0862,3.0866,3.0904,3.0911,3.0919,3.0912,3.0922,3.0924,3.0923,3.0963,3.0935,3.0958,3.0995,3.1003,3.1011,3.1095,3.1072,3.1101,3.1151,3.1181,3.1191,3.12,3.123,3.1241,3.1108,3.1108,3.1108,0,3.0904,3.0943,3.0926,3.0958,3.0969,3.0938,3.0977,3.0984,3.0998,3.1007,3.0985,3.1032,3.1035,3.1086,3.1107,3.1115,3.1125,3.11,3.1191,3.1199,3.1207,3.1236,3.1247,3.1111,3.1111,3.1111,3.111,0,3.0995,3.1023,3.1053,3.1069,3.1084,3.1119,3.1108,3.1125,3.1111,3.1106,3.1148,3.1151,3.1171,3.1182,3.1168,3.1232,3.1219,3.1194,3.1154,3.1224,3.125,3.1261,3.1116,3.1115,3.1114,3.1113,0,0,3.1103,3.1111,3.1122,3.113,3.1138,3.1159,3.1194,3.1215,3.123,3.1241,3.127,3.1303,3.1281,3.1291,3.1278,3.1305,3.1371,3.1277,3.1276,3.1294,3.1442,3.146,3.1473,3.1357,3.1359,3.136,3.1441,0,3.118,3.124,3.1226,3.1285,3.1311,3.1283,3.1313,3.1321,3.1319,3.134,3.1337,3.1361,3.133,3.1336,3.1361,3.1358,3.1401,3.1352,3.1383,3.1384,3.1381,3.1487,3.1506,3.1582,3.1451,3.1453,3.1454,0,3.1277,3.1294,3.1356,3.1362,3.1372,3.1399,3.1418,3.1439,3.1448,3.1445,3.1457,3.1439,3.1474,3.1435,3.1482,3.145,3.1462,3.1463,3.1465,3.1467,3.1423,3.1491,3.1605,3.1617,3.147,3.1469,3.1468,0,3.135,3.1388,3.143,3.1438,3.1445,3.1465,3.147,3.1477,3.1491,3.1507,3.1516,3.1536,3.1547,3.1563,3.1551,3.1524,3.1601,3.1561,3.1599,3.1599,3.1615,3.1614,3.1733,3.1624,3.1624,3.1624,3.1624,0,3.1437,3.1476,3.1463,3.1489,3.1532,3.1517,3.156,3.1561,3.1568,3.1594,3.1571,3.1595,3.1579,3.1602,3.1594,3.1635,3.164,3.1638,3.1635,3.164,3.164,3.1647,3.1641,3.1627,3.1626,3.1626,3.1625,0,3.1525,3.1518,3.1562,3.1567,3.1569,3.1601,3.1605,3.1629,3.1625,3.1658,3.1665,3.1659,3.1686,3.1676,3.1704,3.1698,3.1751,3.1741,3.1748,3.1745,3.1784,3.1781,3.1911,3.1927,3.1808,3.1809,3.181,0,3.1581,3.161,3.1619,3.1635,3.1641,3.1667,3.1681,3.1668,3.1684,3.1698,3.1721,3.1746,3.1764,3.1808,3.1806,3.1828,3.1819,3.1863,3.1822,3.1826,3.1819,3.1818,3.1821,3.1871,3.1872,3.1873,3.1874,0,3.168,3.1676,3.1698,3.1719,3.1738,3.1753,3.1767,3.1782,3.1769,3.1789,3.1816,3.1831,3.1861,3.1885,3.1905,3.1909,3.189,3.1888,3.1898,3.1902,3.1905,3.1904,3.177,3.1884,3.1883,3.1883,3.1882,3.1882,3.1754,3.1779,3.179,3.1815,3.1825,3.1839,3.1862,3.1862,3.1885,3.1908,3.1899,3.1931,3.1941,3.1966,3.1974,3.1998,3.1981,3.1995,3.1999,3.2003,3.2008,3.1902,3.2002,3.2002,3.2001,3.2001,3.2001,0,3.1852,3.1858,3.1882,3.1903,3.1923,3.1905,3.192,3.1938,3.1966,3.1978,3.1998,3.203,3.2054,3.2056,3.2079,3.2098,3.209,3.2105,3.2103,3.2104,3.2022,3.2011,3.2111,3.2111,3.2111,3.2111,3.2111,3.2111,3.1906,3.1948,3.1945,3.1993,3.1998,3.2029,3.204,3.2053,3.2062,3.2099,3.212,3.2121,3.2129,3.2153,3.2175,3.2174,3.2184,3.2202,3.2198,3.2121,3.211,3.2099,3.2089,3.2204,3.2204,3.2279,3.2279,3.228]},{"header":{"parameterUnit":"m.s-1","parameterCategory":1,"la1":30.2991,"la2":30.254,"lo1":-89.0895,"lo2":-89.0444,"dy":0.0017,"dx":0.0017,"nx":28,"ny":28,"refTime":"2026-02-04T09:00:00:Z","depth":0,"parameterNumber":3,"parameterNumberName":"V-component_of_WINDS"},"data":[0,0,0,0,0,0,0,0,0,0,0,0,0,0,0,0,0,0,0,0,0,0,0,0,0,0,0,0,0,0,0,0,0,0,0,0,0,0,0,0,0,0,0,0,0,0,0,0,0,0,0,0,0,0,0,0,0,0,-7.6008,-7.601,0,-7.6198,-7.62,-7.6202,-7.615,-7.6146,-7.6142,-7.6138,-7.6326,-7.6334,-7.6343,0,0,0,0,0,0,0,0,0,0,0,0,0,-7.5594,-7.5602,-7.6008,-7.601,-7.6013,-7.6197,-7.62,-7.6203,-7.615,-7.6146,-7.6141,-7.6137,-7.6323,-7.6333,-7.6344,0,0,0,0,0,0,0,0,0,0,0,0,0,-7.5778,-7.5604,-7.6007,-7.6009,-7.6011,-7.6197,-7.62,-7.6203,-7.6151,-7.6145,-7.614,-7.6134,-7.632,-7.6332,-7.6345,-7.6539,0,0,-7.6384,-7.639,0,0,0,0,0,0,0,0,-7.5767,-7.5793,-7.6006,-7.6009,-7.6012,-7.6144,-7.6123,-7.6316,-7.6153,-7.6098,-7.6138,-7.6132,-7.627,-7.6286,-7.6334,-7.6548,-7.6556,-7.6386,-7.6393,-7.6399,-7.6402,0,0,0,0,0,0,0,-7.5755,-7.5784,-7.6083,-7.6009,-7.6013,-7.5998,-7.6018,-7.6159,-7.6213,-7.6102,-7.6099,-7.6122,-7.627,-7.6322,-7.6338,-7.6559,-7.6385,-7.6397,-7.6405,-7.641,-7.6941,-7.6947,0,0,0,0,0,0,-7.5741,-7.5774,-7.6077,-7.6088,-7.5873,-7.601,-7.6032,-7.6107,-7.6212,-7.6222,-7.6127,-7.6119,-7.6303,-7.6324,-7.6345,-7.658,-7.6399,-7.6411,-7.6418,-7.6935,-7.6943,-7.695,0,0,0,0,0,0,-7.5732,-7.5768,-7.6069,-7.5931,-7.5968,-7.6024,-7.6108,-7.6114,-7.6166,-7.6231,-7.6239,-7.6171,-7.6299,-7.6327,-7.6492,-7.6585,-7.6417,-7.6428,-7.6927,-7.6937,-7.6946,-7.705,0,0,0,0,0,0,-7.572,-7.5765,-7.5841,-7.5933,-7.5975,-7.6215,-7.6114,-7.6122,-7.6189,-7.6181,-7.6274,-7.6284,-7.6297,-7.6473,-7.6505,-7.66,-7.6438,-7.6919,-7.6932,-7.6943,-7.7039,-7.7062,-7.7082,0,0,0,0,0,-7.5706,-7.5861,-7.5845,-7.5882,-7.6072,-7.6221,-7.6245,-7.6259,-7.6197,-7.6273,-7.6314,-7.6281,-7.657,-7.649,-7.6526,-7.6626,-7.6913,-7.6928,-7.6942,-7.7029,-7.7057,-7.7082,0,0,0,0,0,0,-7.5777,-7.5873,-7.5857,-7.6047,-7.6126,-7.6211,-7.6307,-7.6288,-7.6385,-7.6373,-7.6384,-7.6405,-7.6574,-7.6616,-7.6526,-7.6819,-7.6732,-7.6754,-7.6786,-7.6814,-7.6835,-7.6822,-7.6449,0,0,0,0,0,-7.5815,-7.593,-7.6007,-7.6167,-7.6208,-7.6251,-7.6317,-7.6321,-7.6402,-7.6435,-7.6488,-7.6567,-7.6676,-7.6747,-7.685,-7.7044,-7.7063,-7.7131,-7.7152,-7.717,-7.7189,-7.7295,-7.7325,-7.6997,-7.6997,-7.6997,0,0,-7.5894,-7.5961,-7.6033,-7.6183,-7.6245,-7.6363,-7.628,-7.6407,-7.6494,-7.6453,-7.6614,-7.6656,-7.6744,-7.6925,-7.7007,-7.6965,-7.7284,-7.7188,-7.7202,-7.7212,-7.7313,-7.7344,-7.7371,-7.7007,-7.7005,-7.7003,0,0,-7.6099,-7.6162,-7.6302,-7.6367,-7.6463,-7.649,-7.6524,-7.6613,-7.664,-7.6801,-7.6774,-7.6876,-7.7063,-7.7127,-7.7184,-7.7415,-7.7387,-7.7447,-7.7561,-7.7664,-7.769,-7.7713,-7.7796,-7.7825,-7.7466,-7.7466,-7.7467,0,-7.6185,-7.6363,-7.6376,-7.6507,-7.6574,-7.6546,-7.6688,-7.6748,-7.6872,-7.6918,-7.687,-7.7105,-7.7162,-7.7357,-7.7414,-7.7461,-7.7499,-7.7437,-7.7686,-7.7709,-7.7731,-7.7809,-7.784,-7.7473,-7.7472,-7.7472,-7.7471,0,-7.6464,-7.6587,-7.6689,-7.6812,-7.689,-7.7026,-7.7059,-7.7136,-7.7133,-7.7165,-7.7329,-7.7398,-7.7515,-7.7561,-7.7558,-7.7757,-7.7728,-7.7683,-7.7595,-7.7769,-7.7843,-7.7873,-7.7483,-7.748,-7.7478,-7.7477,0,0,-7.6718,-7.6849,-7.6886,-7.6942,-7.7046,-7.714,-7.7274,-7.7391,-7.7457,-7.7543,-7.7654,-7.7814,-7.7773,-7.7838,-7.7842,-7.7933,-7.8111,-7.7877,-7.7879,-7.7918,-7.8333,-7.8367,-7.8402,-7.8094,-7.8099,-7.8104,-7.8326,0,-7.6933,-7.7171,-7.7187,-7.7401,-7.7515,-7.749,-7.7606,-7.7682,-7.7716,-7.7815,-7.7851,-7.7965,-7.7902,-7.7942,-7.803,-7.8071,-7.8195,-7.8055,-7.8196,-7.8201,-7.8176,-7.844,-7.8476,-7.8683,-7.8355,-7.836,-7.8364,0,-7.7214,-7.7312,-7.7539,-7.7627,-7.7675,-7.778,-7.7889,-7.7985,-7.807,-7.8087,-7.8161,-7.8153,-7.8288,-7.8196,-7.8383,-7.8287,-7.8346,-7.8375,-7.8383,-7.8397,-7.8293,-7.8462,-7.8749,-7.878,-7.8409,-7.8406,-7.8402,0,-7.7378,-7.7566,-7.7726,-7.7774,-7.7881,-7.7956,-7.8003,-7.8082,-7.8152,-7.8246,-7.8291,-7.8398,-7.8457,-7.854,-7.856,-7.8492,-7.8746,-7.8656,-7.8764,-7.8764,-7.8819,-7.8815,-7.912,-7.8856,-7.8856,-7.8855,-7.8855,0,-7.7616,-7.7755,-7.7801,-7.79,-7.8055,-7.8072,-7.8224,-7.8267,-7.8337,-7.8442,-7.8426,-7.8524,-7.8545,-7.8647,-7.8664,-7.8816,-7.8842,-7.8859,-7.8862,-7.8861,-7.8859,-7.89,-7.8886,-7.8864,-7.8862,-7.886,-7.8859,0,-7.7825,-7.7861,-7.8034,-7.8122,-7.8148,-7.8258,-7.8332,-7.8426,-7.8458,-7.8591,-7.8623,-7.8672,-7.8792,-7.8821,-7.8962,-7.8973,-7.9153,-7.9141,-7.9125,-7.9125,-7.9232,-7.9221,-7.9573,-7.962,-7.9326,-7.9328,-7.9331,0,-7.7975,-7.8082,-7.8182,-7.8253,-7.8305,-7.8418,-7.8489,-7.8509,-7.8584,-7.8689,-7.877,-7.8888,-7.8983,-7.9175,-7.9222,-7.933,-7.9321,-7.9437,-7.9337,-7.9333,-7.9323,-7.9317,-7.9328,-7.9456,-7.9459,-7.9462,-7.9464,0,-7.8236,-7.8249,-7.8354,-7.8466,-7.8553,-7.8641,-7.8725,-7.8783,-7.8814,-7.8899,-7.9022,-7.9097,-7.9243,-7.936,-7.9469,-7.9515,-7.9495,-7.9495,-7.9526,-7.9526,-7.9513,-7.9522,-7.9178,-7.9487,-7.9485,-7.9483,-7.9482,-7.9481,-7.8421,-7.8515,-7.8601,-7.8719,-7.8785,-7.8864,-7.8957,-7.9001,-7.9105,-7.9227,-7.9232,-7.9366,-7.9447,-7.9592,-7.9645,-7.9749,-7.9713,-7.9758,-7.9769,-7.978,-7.979,-7.9497,-7.9769,-7.9768,-7.9767,-7.9767,-7.9766,0,-7.8682,-7.8737,-7.8845,-7.8964,-7.9056,-7.9032,-7.9124,-7.9202,-7.9321,-7.94,-7.9495,-7.9636,-7.975,-7.9807,-7.9919,-7.9991,-7.9985,-8.002,-8.0015,-8.0026,-7.9815,-7.9778,-8.0023,-8.0023,-8.0023,-8.0023,-8.0023,-8.0023,-7.8829,-7.8988,-7.9011,-7.9202,-7.9255,-7.9388,-7.9443,-7.9516,-7.9578,-7.9739,-7.9834,-7.9871,-7.994,-8.0057,-8.016,-8.0174,-8.0216,-8.0256,-8.0265,-8.0067,-8.0041,-8.0016,-7.998,-8.0265,-8.0265,-8.0467,-8.0468,-8.047]}]]